Date String (YYYY-MM-DD hh:mm:ss) UTC,Instrument flags,absolute air pressure of the measurement (hPa),sample flow rate (lpm),inlet stack bypass flow (lpm),air temperature of the measurement (°C),ambient temperature measured by the external sensor (°C),aerosol sample conditioner tube jacket temperature (°C),OPC LED temperature (°C),internal box temperature (°C),relative humidity of the measurement (%),span deviation,mass concentration of particles derived from Lorenz-Mie calculation of OPC scattering (μg/m³),mass concentration of particles derived from Lorenz-Mie calculation of OPC scattering (μg/m³),mass concentration of particles derived from Lorenz-Mie calculation of OPC scattering (μg/m³)
DateTimeUTC,F1_M11,P_M11,Q1_M11,Q2_M11,T1_M11,T2_M11,T3_M11,T4_M11,T5_M11,U1_M11,ZSPAN_M11,X0_M11,X2_M11,X1_M11
2024-06-08 15:00:00,SystemResetWarning,0829.4,5.01,000.00,029.9,027.9,000.0,038.6,031.2,028.0,0000.0,0010.77,0003.68,0002.71
2024-06-08 15:01:00,SystemResetWarning,0829.4,5.00,000.00,029.9,028.3,000.0,038.5,031.4,027.8,0000.0,0011.17,0003.71,0002.73
2024-06-08 15:02:00,SystemResetWarning,0829.4,5.00,000.00,029.9,028.5,000.0,038.5,031.5,027.8,0000.0,0011.37,0003.76,0002.78
2024-06-08 15:03:00,SystemResetWarning,0829.4,5.00,000.00,030.0,028.8,000.0,038.5,031.6,027.5,0000.0,0011.08,0003.81,0002.85
2024-06-08 15:04:00,SystemResetWarning,0829.4,5.00,000.00,030.0,029.0,000.0,038.4,031.7,027.9,0000.0,0011.86,0003.83,0002.92
2024-06-08 15:05:00,SystemResetWarning,0829.4,4.99,000.00,030.0,029.1,000.0,038.4,031.7,027.9,0000.0,0012.30,0003.81,0002.91
2024-06-08 15:06:00,SystemResetWarning,0829.3,5.00,000.00,030.1,029.3,000.0,038.4,031.8,028.1,0000.0,0013.31,0003.79,0002.91
2024-06-08 15:07:00,SystemResetWarning,0829.3,5.00,000.00,030.1,029.4,000.0,038.4,031.9,028.8,0000.0,0013.74,0003.82,0002.92
2024-06-08 15:08:00,SystemResetWarning,0829.3,5.01,000.00,030.2,029.5,000.0,038.5,031.9,028.5,0000.0,0013.57,0003.83,0002.93
2024-06-08 15:09:00,SystemResetWarning,0829.3,5.01,000.00,030.2,029.6,000.0,038.5,032.0,028.5,0000.0,0012.99,0003.82,0002.92
2024-06-08 15:10:00,SystemResetWarning,0829.3,5.00,000.00,030.3,029.7,000.0,038.5,032.0,027.9,0000.0,0013.58,0003.81,0002.91
2024-06-08 15:11:00,SystemResetWarning,0829.3,4.99,000.00,030.3,029.7,000.0,038.5,032.0,028.5,0000.0,0014.46,0003.78,0002.88
2024-06-08 15:12:00,SystemResetWarning,0829.4,5.00,000.00,030.4,029.8,000.0,038.6,032.1,027.2,0000.0,0014.43,0003.74,0002.85
2024-06-08 15:13:00,SystemResetWarning,0829.4,4.99,000.00,030.4,029.9,000.0,038.6,032.1,027.9,0000.0,0014.16,0003.67,0002.80
2024-06-08 15:14:00,SystemResetWarning,0829.4,5.01,000.00,030.4,029.9,000.0,038.6,032.2,027.8,0000.0,0013.81,0003.59,0002.72
2024-06-08 15:15:00,SystemResetWarning,0829.4,5.01,000.00,030.5,030.0,000.0,038.6,032.2,028.0,0000.0,0013.21,0003.57,0002.64
2024-06-08 15:16:00,SystemResetWarning,0829.4,5.01,000.00,030.5,030.0,000.0,038.7,032.2,027.3,0000.0,0012.24,0003.58,0002.62
2024-06-08 15:17:00,SystemResetWarning,0829.4,5.00,000.00,030.6,030.1,000.0,038.7,032.3,027.0,0000.0,0011.59,0003.62,0002.62
2024-06-08 15:18:00,SystemResetWarning,0829.3,4.98,000.00,030.5,029.1,000.0,038.8,031.8,027.7,0000.0,0010.36,0003.59,0002.62
2024-06-08 15:19:00,SystemResetWarning,0829.3,5.00,000.00,030.1,026.9,000.0,038.8,030.7,028.8,0000.0,0010.32,0003.55,0002.60
2024-06-08 15:20:00,SystemResetWarning,0829.2,5.01,000.00,029.7,026.3,000.0,038.8,030.3,028.7,0000.0,0010.77,0003.56,0002.59
2024-06-08 15:21:00,SystemResetWarning,0829.3,5.01,000.00,029.6,026.7,000.0,038.6,030.5,028.8,0000.0,0011.01,0003.59,0002.61
2024-06-08 15:22:00,SystemResetWarning,0829.3,4.99,000.00,029.6,027.2,000.0,038.5,030.7,029.0,0000.0,0010.15,0003.64,0002.65
2024-06-08 15:23:00,SystemResetWarning,0829.4,4.99,000.00,029.6,027.6,000.0,038.4,031.0,029.3,0000.0,0009.79,0003.70,0002.67
2024-06-08 15:24:00,SystemResetWarning,0829.4,5.01,000.00,029.6,028.0,000.0,038.3,031.1,029.3,0000.0,0009.78,0003.77,0002.69
2024-06-08 15:25:00,SystemResetWarning,0829.4,5.01,000.00,029.7,028.3,000.0,038.3,031.3,028.7,0000.0,0009.93,0003.82,0002.73
2024-06-08 15:26:00,SystemResetWarning,0829.3,5.00,000.00,029.7,028.5,000.0,038.3,031.4,028.6,0000.0,0009.96,0003.82,0002.76
2024-06-08 15:27:00,SystemResetWarning,0829.3,4.99,000.00,029.8,028.8,000.0,038.3,031.5,028.4,0000.0,0010.04,0003.82,0002.78
2024-06-08 15:28:00,SystemResetWarning,0829.3,4.99,000.00,029.8,028.9,000.0,038.2,031.6,028.8,0000.0,0010.45,0003.82,0002.80
2024-06-08 15:29:00,SystemResetWarning,0829.4,5.00,000.00,029.9,029.1,000.0,038.2,031.6,029.3,0000.0,0010.57,0003.83,0002.82
2024-06-08 15:30:00,SystemResetWarning,0829.4,5.01,000.00,029.9,029.2,000.0,038.3,031.7,029.1,0000.0,0011.17,0003.85,0002.84
2024-06-08 15:31:00,SystemResetWarning,0829.3,5.01,000.00,030.0,029.4,000.0,038.3,031.8,028.6,0000.0,0011.21,0003.85,0002.87
2024-06-08 15:32:00,SystemResetWarning,0829.3,4.99,000.00,030.0,029.5,000.0,038.3,031.8,029.0,0000.0,0011.11,0003.88,0002.90
2024-06-08 15:33:00,SystemResetWarning,0829.3,4.99,000.00,030.1,029.5,000.0,038.3,031.9,028.8,0000.0,0011.37,0003.89,0002.89
2024-06-08 15:34:00,SystemResetWarning,0829.3,5.00,000.00,030.1,029.6,000.0,038.4,031.9,028.4,0000.0,0012.17,0003.93,0002.90
2024-06-08 15:35:00,SystemResetWarning,0829.3,5.00,000.00,030.2,029.7,000.0,038.4,032.0,028.7,0000.0,0012.10,0003.91,0002.90
2024-06-08 15:36:00,SystemResetWarning,0829.3,5.00,000.00,030.3,029.8,000.0,038.4,032.0,028.3,0000.0,0012.09,0003.86,0002.89
2024-06-08 15:37:00,SystemResetWarning,0829.3,5.01,000.00,030.3,029.8,000.0,038.4,032.1,027.8,0000.0,0012.15,0003.86,0002.89
2024-06-08 15:38:00,SystemResetWarning,0829.4,5.01,000.00,030.4,029.9,000.0,038.5,032.1,027.4,0000.0,0012.03,0003.84,0002.88
2024-06-08 15:39:00,SystemResetWarning,0829.4,4.99,000.00,030.4,029.6,000.0,038.5,031.9,027.1,0000.0,0012.80,0003.84,0002.88
2024-06-08 15:40:00,SystemResetWarning,0829.2,4.99,000.00,030.1,027.6,000.0,038.6,031.0,028.0,0000.0,0013.15,0003.83,0002.88
2024-06-08 15:41:00,SystemResetWarning,0829.2,5.01,000.00,029.7,026.3,000.0,038.6,030.3,029.0,0000.0,0013.11,0003.87,0002.89
2024-06-08 15:42:00,SystemResetWarning,0829.1,5.01,000.00,029.5,026.6,000.0,038.5,030.4,029.9,0000.0,0013.35,0003.91,0002.92
2024-06-08 15:43:00,SystemResetWarning,0829.2,5.00,000.00,029.5,027.0,000.0,038.4,030.6,030.1,0000.0,0013.16,0003.88,0002.92
2024-06-08 15:44:00,SystemResetWarning,0829.1,5.00,000.00,029.5,027.5,000.0,038.3,030.8,029.6,0000.0,0013.09,0003.90,0002.95
2024-06-08 15:45:00,SystemResetWarning,0829.1,5.00,000.00,029.5,027.8,000.0,038.2,031.0,028.9,0000.0,0012.28,0003.89,0002.97
2024-06-08 15:46:00,SystemResetWarning,0829.2,5.00,000.00,029.6,028.2,000.0,038.2,031.2,028.5,0000.0,0012.23,0003.89,0003.02
2024-06-08 15:47:00,SystemResetWarning,0829.1,5.00,000.00,029.6,028.5,000.0,038.1,031.3,028.4,0000.0,0012.03,0003.89,0003.05
2024-06-08 15:48:00,SystemResetWarning,0829.2,5.00,000.00,029.7,028.7,000.0,038.1,031.4,028.3,0000.0,0012.05,0003.89,0003.04
2024-06-08 15:49:00,SystemResetWarning,0829.2,5.00,000.00,029.7,028.9,000.0,038.1,031.5,028.0,0000.0,0012.02,0003.91,0003.06
2024-06-08 15:50:00,SystemResetWarning,0829.2,4.99,000.00,029.8,029.1,000.0,038.1,031.6,028.3,0000.0,0011.24,0003.97,0003.08
2024-06-08 15:51:00,SystemResetWarning,0829.1,5.00,000.00,029.9,029.2,000.0,038.2,031.6,028.1,0000.0,0011.04,0004.01,0003.10
2024-06-08 15:52:00,SystemResetWarning,0829.1,4.99,000.00,029.9,029.3,000.0,038.2,031.7,029.2,0000.0,0010.90,0003.98,0003.11
2024-06-08 15:53:00,SystemResetWarning,0829.1,5.00,000.00,030.0,029.4,000.0,038.2,031.8,029.7,0000.0,0011.12,0003.95,0003.11
2024-06-08 15:54:00,SystemResetWarning,0829.1,5.00,000.00,030.0,029.5,000.0,038.2,031.8,028.8,0000.0,0011.95,0003.98,0003.11
2024-06-08 15:55:00,SystemResetWarning,0829.2,5.00,000.00,030.1,029.6,000.0,038.2,031.9,028.4,0000.0,0012.45,0003.95,0003.11
2024-06-08 15:56:00,SystemResetWarning,0829.2,5.01,000.00,030.2,029.7,000.0,038.3,031.9,027.8,0000.0,0012.32,0003.95,0003.11
2024-06-08 15:57:00,SystemResetWarning,0829.2,5.01,000.00,030.2,029.8,000.0,038.3,032.0,027.4,0000.0,0012.60,0003.96,0003.12
2024-06-08 15:58:00,SystemResetWarning,0829.2,5.00,000.00,030.2,029.6,000.0,038.4,031.9,027.4,0000.0,0012.85,0004.03,0003.13
2024-06-08 15:59:00,SystemResetWarning,0829.2,4.98,000.00,030.1,028.0,000.0,038.5,031.1,027.9,0000.0,0013.24,0004.08,0003.15
